Weather History for Brainerd, MN

Change the Weather History Date:

Saturday, November 26, 2011

  Actual Average Record
Temperature  
Mean Temperature 39 °F -  
Max Temperature 45 °F 32 °F 53 °F (1998)
Min Temperature 33 °F 13 °F -17 °F (1977)
Degree Days  
Heating Degree Days 26    
Moisture  
Dew Point 32 °F    
Average Humidity 80    
Maximum Humidity 89    
Minimum Humidity 70    
Precipitation  
Precipitation 0.03 in - - ()
Sea Level Pressure  
Sea Level Pressure 29.89 in    
Wind  
Wind Speed 10 mph (NNW)    
Max Wind Speed 22 mph    
Max Gust Speed 30 mph    
Visibility 6 miles    
Events Rain , Snow    
Averages and records for this station are not official NWS values.
T = Trace of Precipitation, MM = Missing Value Source: NWS Daily Summary

Daily Weather History Graph

Daily Weather History Graph

Search for Another Location

Airport:

Trip Planner

Search our weather history database for the weather conditions in past years. The results will help you decide how hot, cold, wet, or windy it might be!

Date:

Astronomy

Nov. 26, 2011 Rise Set
Actual Time 7:32 AM CST 4:34 PM CST
Civil Twilight 6:59 AM CST 5:08 PM CST
Nautical Twilight 6:21 AM CST 5:45 PM CST
Astronomical Twilight 5:45 AM CST 6:21 PM CST
Moon 9:08 AM CST (11/26) 6:02 PM CST (11/26)
Length of Visible Light 10h 08m
Length of Day
9h 01m
Waxing Crescent, 3% of the Moon is Illuminated
Nov 26
Waxing Crescent
Dec 2
First Quarter
Dec 10
Full
Dec 17
Last Quarter
Dec 24
New

Hourly Weather History & Observations

Time (CST) Temp. Windchill Dew Point Humidity Pressure Visibility Wind Dir Wind Speed Gust Speed Precip Events Conditions
12:53 AM 45.0 °F 41.8 °F 39.0 °F 80% 29.68 in 5.0 mi East 5.8 mph - N/A   Haze
1:53 AM 45.0 °F 42.6 °F 39.0 °F 80% 29.70 in 4.0 mi NE 4.6 mph - N/A   Haze
2:15 AM 44.6 °F 40.2 °F 39.2 °F 81% 29.68 in 2.5 mi NE 8.1 mph - 0.00 in   Haze
2:53 AM 42.1 °F 37.7 °F 39.0 °F 89% 29.71 in 1.2 mi ENE 6.9 mph - 0.00 in Rain Light Rain
3:10 AM 42.8 °F 39.3 °F 39.2 °F 87% 29.69 in 1.8 mi ENE 5.8 mph - 0.00 in Rain Light Rain
3:21 AM 42.8 °F 39.3 °F 37.4 °F 81% 29.69 in 2.0 mi ENE 5.8 mph - 0.00 in   Overcast
3:49 AM 42.8 °F 39.3 °F 37.4 °F 81% 29.68 in 3.0 mi ENE 5.8 mph - 0.00 in   Overcast
3:53 AM 42.1 °F 37.7 °F 37.9 °F 85% 29.71 in 4.0 mi ENE 6.9 mph - 0.00 in   Overcast
4:53 AM 42.1 °F 38.4 °F 37.9 °F 85% 29.72 in 5.0 mi NE 5.8 mph - N/A   Overcast
5:31 AM 41.0 °F 39.0 °F 37.4 °F 87% 29.71 in 2.5 mi North 3.5 mph - 0.01 in Rain Light Rain
5:53 AM 41.0 °F 38.0 °F 37.9 °F 89% 29.75 in 2.5 mi North 4.6 mph - 0.01 in   Overcast
6:53 AM 41.0 °F 36.4 °F 37.0 °F 86% 29.77 in 3.0 mi North 6.9 mph - 0.01 in   Overcast
7:34 AM 41.0 °F 34.7 °F 37.4 °F 87% 29.78 in 2.5 mi NNW 10.4 mph - 0.00 in Rain Light Rain
7:46 AM 41.0 °F 35.2 °F 37.4 °F 87% 29.78 in 3.0 mi NNW 9.2 mph - 0.01 in Rain Light Rain
8:43 AM 39.2 °F 31.2 °F 35.6 °F 87% 29.81 in 2.5 mi NNW 13.8 mph - 0.00 in   Overcast
8:53 AM 39.0 °F 31.0 °F 35.1 °F 86% 29.84 in 3.0 mi NNW 13.8 mph - 0.00 in   Overcast
9:53 AM 39.0 °F 31.0 °F 34.0 °F 82% 29.86 in 10.0 mi NNW 13.8 mph - N/A   Overcast
10:53 AM 37.9 °F 30.0 °F 33.1 °F 83% 29.88 in 10.0 mi NNW 12.7 mph 21.9 mph N/A   Overcast
11:34 AM 37.4 °F 27.5 °F 30.2 °F 75% 29.86 in 10.0 mi NNW 18.4 mph 24.2 mph N/A   Overcast
11:53 AM 37.0 °F 28.5 °F 30.9 °F 79% 29.91 in 10.0 mi NW 13.8 mph 20.7 mph N/A   Overcast
12:53 PM 36.0 °F 26.3 °F 30.0 °F 79% 29.92 in 10.0 mi NNW 16.1 mph - N/A   Overcast
1:53 PM 37.0 °F 27.0 °F 30.0 °F 76% 29.94 in 9.0 mi NNW 18.4 mph 26.5 mph 0.00 in Snow Light Snow
2:34 PM 35.6 °F 25.2 °F 28.4 °F 75% 29.92 in 4.0 mi NNW 18.4 mph - 0.00 in Snow Light Snow
2:47 PM 35.6 °F 25.9 °F 30.2 °F 81% 29.93 in 2.5 mi NNW 16.1 mph 24.2 mph 0.00 in Snow Light Snow
2:53 PM 35.1 °F 26.9 °F 30.0 °F 82% 29.96 in 2.0 mi NNW 11.5 mph 20.7 mph 0.00 in Snow Light Snow
3:07 PM 35.6 °F 27.5 °F 30.2 °F 81% 29.94 in 2.5 mi NW 11.5 mph - 0.00 in Snow Light Snow
3:15 PM 35.6 °F 26.6 °F 30.2 °F 81% 29.94 in 4.0 mi NW 13.8 mph 21.9 mph 0.01 in Snow Light Snow
3:43 PM 35.6 °F 25.5 °F 28.4 °F 75% 29.95 in 10.0 mi NW 17.3 mph 23.0 mph 0.01 in   Overcast
3:53 PM 36.0 °F 25.3 °F 28.9 °F 76% 30.00 in 10.0 mi NW 19.6 mph 25.3 mph 0.01 in   Overcast
4:04 PM 35.6 °F 25.9 °F 28.4 °F 75% 29.96 in 10.0 mi NW 16.1 mph 28.8 mph N/A   Overcast
4:35 PM 35.6 °F 26.2 °F 26.6 °F 70% 29.98 in 10.0 mi NW 15.0 mph 25.3 mph N/A   Overcast
4:53 PM 35.1 °F 25.9 °F 28.0 °F 76% 30.03 in 5.0 mi NW 13.8 mph 21.9 mph 0.00 in Snow Light Snow
5:53 PM 34.0 °F 24.6 °F 28.0 °F 79% 30.06 in 10.0 mi NNW 13.8 mph 24.2 mph 0.00 in   Overcast
6:53 PM 35.1 °F 24.1 °F 27.0 °F 72% 30.07 in 10.0 mi NW 19.6 mph 27.6 mph N/A   Overcast
7:53 PM 35.1 °F 25.5 °F 27.0 °F 72% 30.09 in 10.0 mi NNW 15.0 mph 28.8 mph N/A   Overcast
8:37 PM 33.8 °F 21.9 °F 26.6 °F 75% 30.07 in 10.0 mi NNW 21.9 mph 29.9 mph N/A   Overcast
8:53 PM 34.0 °F 23.0 °F 27.0 °F 75% 30.12 in 10.0 mi NNW 18.4 mph 27.6 mph N/A   Overcast
10:12 PM 33.8 °F 23.9 °F 26.6 °F 75% 30.08 in 10.0 mi NNW 15.0 mph 25.3 mph 0.00 in Rain Light Freezing Rain
10:35 PM 33.8 °F 23.5 °F 26.6 °F 75% 30.08 in 10.0 mi NNW 16.1 mph 21.9 mph 0.00 in   Overcast
10:53 PM 34.0 °F 23.4 °F 26.1 °F 73% 30.12 in 10.0 mi NNW 17.3 mph 26.5 mph 0.00 in   Overcast
11:53 PM 33.1 °F 21.9 °F 26.1 °F 75% 30.14 in 10.0 mi NNW 18.4 mph - N/A   Overcast